Location: Calmejanne
(44.7523°N, 1.9418°E)
Time: 21:14:50
(UTC+00:00)

Okean O Rocket - Pass Details

Date: 14 May 2026
Orbit: 614 x 633 km, 98.0° (Epoch: 10 June)

Event Time Altitude Azimuth Distance (km) Brightness Sun altitude
Exits shadow 21:11:19 17° 195° (SSW) 1,558 3.3 -17.1°
Maximum altitude 21:14:19 44° 261° (W) 859 2.5 -17.4°
Drops below altitude 10° 21:18:26 10° 334° (NNW) 1,983 5.4 -17.8°
Sets 21:20:43 0° 341° (NNW) 2,894 6.4 -18.1°
